�������l�o���
Date,Time,MP-1(��Sv/h),MP-2(��Sv/h),MP-3(��Sv/h),MP-4(��Sv/h),MP-5(��Sv/h),MP-6(��Sv/h),MP-7(��Sv/h),����,����(m/s),���J
2016/10/12,00:00,0.396,0.239,0.411,0.380,0.366,0.195,0.169,���쐼,5.7,��
2016/10/12,00:10,0.396,0.238,0.413,0.379,0.363,0.194,0.168,�쐼,4.2,��
2016/10/12,00:20,0.395,0.239,0.411,0.380,0.362,0.195,0.168,�쐼,3.1,��
2016/10/12,00:30,0.397,0.238,0.411,0.377,0.366,0.196,0.167,��,3.0,��
2016/10/12,00:40,0.396,0.238,0.414,0.381,0.363,0.195,0.167,��,3.4,��
2016/10/12,00:50,0.396,0.237,0.410,0.377,0.366,0.195,0.169,���k��,3.6,��
2016/10/12,01:00,0.397,0.238,0.412,0.377,0.365,0.194,0.167,�k��,3.5,��
2016/10/12,01:10,0.394,0.238,0.411,0.379,0.363,0.194,0.168,���k��,3.2,��
2016/10/12,01:20,0.397,0.237,0.411,0.377,0.365,0.194,0.168,��,3.3,��
2016/10/12,01:30,0.395,0.238,0.412,0.380,0.364,0.194,0.168,��,3.4,��
2016/10/12,01:40,0.395,0.238,0.411,0.379,0.366,0.196,0.168,��,3.3,��
2016/10/12,01:50,0.396,0.238,0.412,0.378,0.365,0.195,0.167,���k��,2.7,��
2016/10/12,02:00,0.396,0.238,0.412,0.380,0.362,0.195,0.168,�k��,2.1,��
2016/10/12,02:10,0.395,0.236,0.411,0.379,0.363,0.194,0.168,�k��,1.6,��
2016/10/12,02:20,0.397,0.237,0.412,0.378,0.366,0.195,0.167,�k��,2.2,��
2016/10/12,02:30,0.394,0.237,0.410,0.379,0.363,0.194,0.167,��,2.0,��
2016/10/12,02:40,0.396,0.238,0.412,0.378,0.365,0.194,0.167,��,1.6,��
2016/10/12,02:50,0.397,0.237,0.411,0.379,0.366,0.195,0.168,��,2.2,��
2016/10/12,03:00,0.394,0.237,0.412,0.377,0.364,0.194,0.168,��,3.1,��
2016/10/12,03:10,0.396,0.238,0.413,0.379,0.366,0.195,0.167,��,2.8,��
2016/10/12,03:20,0.396,0.238,0.411,0.378,0.364,0.194,0.167,���k��,1.1,��
2016/10/12,03:30,0.396,0.238,0.412,0.378,0.365,0.194,0.167,�k��,1.7,��
2016/10/12,03:40,0.396,0.237,0.411,0.378,0.365,0.194,0.168,�k,1.2,��
2016/10/12,03:50,0.395,0.237,0.410,0.379,0.362,0.194,0.168,�k�k��,0.9,��
2016/10/12,04:00,0.396,0.238,0.413,0.379,0.363,0.194,0.167,�k�k��,1.4,��
2016/10/12,04:10,0.395,0.238,0.410,0.378,0.365,0.194,0.167,�k�k��,3.1,��
2016/10/12,04:20,0.395,0.239,0.411,0.378,0.364,0.196,0.168,�k,2.7,��
2016/10/12,04:30,0.395,0.238,0.413,0.381,0.366,0.194,0.167,�k�k��,2.4,��
2016/10/12,04:40,0.398,0.238,0.411,0.378,0.364,0.194,0.169,�k��,1.5,��
2016/10/12,04:50,0.394,0.238,0.413,0.377,0.364,0.194,0.168,���쐼,1.4,��
2016/10/12,05:00,0.394,0.237,0.411,0.380,0.364,0.194,0.167,���쐼,1.5,��
2016/10/12,05:10,0.396,0.238,0.411,0.378,0.361,0.194,0.166,�k��,1.9,��
2016/10/12,05:20,0.394,0.237,0.413,0.378,0.364,0.193,0.167,�k,2.8,��
2016/10/12,05:30,0.397,0.238,0.410,0.379,0.363,0.193,0.168,�k�k��,2.4,��
2016/10/12,05:40,0.396,0.238,0.411,0.378,0.365,0.195,0.168,�k,3.6,��
2016/10/12,05:50,0.395,0.236,0.413,0.380,0.364,0.194,0.167,�k,4.8,��
2016/10/12,06:00,0.397,0.238,0.411,0.378,0.365,0.193,0.166,�k�k��,3.1,��
2016/10/12,06:10,0.394,0.237,0.413,0.377,0.364,0.195,0.167,���k��,2.9,��
2016/10/12,06:20,0.396,0.237,0.411,0.379,0.361,0.194,0.167,��,1.7,��
2016/10/12,06:30,0.396,0.237,0.410,0.376,0.365,0.194,0.167,���k��,1.3,��
2016/10/12,06:40,0.393,0.237,0.411,0.377,0.362,0.194,0.167,�k�k��,1.7,��
2016/10/12,06:50,0.395,0.237,0.412,0.377,0.363,0.195,0.167,�k�k��,2.5,��
2016/10/12,07:00,0.394,0.238,0.410,0.377,0.365,0.194,0.167,�k�k��,2.6,��
2016/10/12,07:10,0.392,0.238,0.413,0.378,0.364,0.194,0.166,���k��,2.9,��
2016/10/12,07:20,0.394,0.236,0.411,0.377,0.364,0.195,0.167,��,3.1,��
2016/10/12,07:30,0.394,0.237,0.411,0.376,0.362,0.193,0.167,��,5.8,��
2016/10/12,07:40,0.393,0.237,0.412,0.379,0.361,0.194,0.166,��,5.9,��
2016/10/12,07:50,0.396,0.238,0.409,0.377,0.366,0.194,0.167,���k��,2.8,��
2016/10/12,08:00,0.394,0.237,0.413,0.379,0.361,0.194,0.167,�k�k��,1.9,��
2016/10/12,08:10,0.395,0.238,0.410,0.375,0.364,0.194,0.166,�k,1.6,��
2016/10/12,08:20,0.396,0.236,0.409,0.379,0.363,0.195,0.166,�k�k��,1.9,��
2016/10/12,08:30,0.394,0.238,0.411,0.375,0.363,0.194,0.167,�k�k��,2.3,��
2016/10/12,08:40,0.398,0.235,0.410,0.376,0.365,0.195,0.166,�k��,1.6,��
2016/10/12,08:50,0.393,0.238,0.412,0.377,0.364,0.194,0.166,�k�k��,3.1,��
2016/10/12,09:00,0.395,0.237,0.410,0.376,0.364,0.195,0.167,�k,2.8,��
2016/10/12,09:10,0.392,0.236,0.411,0.376,0.362,0.195,0.167,�k,3.3,��
2016/10/12,09:20,0.393,0.237,0.408,0.375,0.360,0.193,0.166,�k,2.6,��
2016/10/12,09:30,0.394,0.237,0.412,0.372,0.363,0.193,0.166,�k�k��,3.3,��
2016/10/12,09:40,0.391,0.236,0.409,0.373,0.361,0.194,0.166,�k,4.0,��
2016/10/12,09:50,0.392,0.236,0.411,0.378,0.360,0.194,0.168,�k�k��,3.3,��
2016/10/12,10:00,0.393,0.238,0.410,0.378,0.364,0.194,0.167,�k��,3.5,��
2016/10/12,10:10,0.393,0.237,0.412,0.376,0.364,0.195,0.166,�k��,4.7,��
2016/10/12,10:20,0.391,0.236,0.407,0.373,0.362,0.194,0.167,�k��,3.9,��
2016/10/12,10:30,0.394,0.238,0.411,0.374,0.361,0.194,0.168,�k��,4.4,��
2016/10/12,10:40,0.397,0.239,0.411,0.373,0.362,0.194,0.166,�k��,4.4,��
2016/10/12,10:50,0.393,0.238,0.409,0.376,0.367,0.195,0.167,�k��,4.0,��
2016/10/12,11:00,0.390,0.236,0.411,0.381,0.364,0.194,0.166,���k��,2.7,��
2016/10/12,11:10,0.394,0.238,0.410,0.379,0.362,0.195,0.169,�k��,3.4,��
2016/10/12,11:20,0.396,0.239,0.405,0.376,0.361,0.195,0.167,���k��,3.2,��
2016/10/12,11:30,0.395,0.237,0.407,0.376,0.362,0.194,0.168,�k��,2.2,��
2016/10/12,11:40,0.393,0.237,0.412,0.374,0.365,0.195,0.167,�k��,3.1,��
2016/10/12,11:50,0.395,0.235,0.409,0.375,0.366,0.196,0.165,�k��,1.6,��
2016/10/12,12:00,0.397,0.240,0.408,0.375,0.363,0.195,0.167,��,3.3,��
2016/10/12,12:10,0.395,0.239,0.408,0.378,0.362,0.194,0.168,��,1.9,��
2016/10/12,12:20,0.397,0.237,0.414,0.382,0.364,0.195,0.168,�쓌,1.2,��
2016/10/12,12:30,0.398,0.239,0.410,0.380,0.366,0.195,0.166,���k��,0.9,��
2016/10/12,12:40,0.394,0.238,0.407,0.378,0.363,0.195,0.168,�k�k��,0.6,��
2016/10/12,12:50,0.397,0.237,0.409,0.375,0.363,0.193,0.169,�k�k��,1.8,��
2016/10/12,13:00,0.397,0.239,0.413,0.379,0.362,0.194,0.167,���쓌,0.5,��
2016/10/12,13:10,0.395,0.238,0.408,0.379,0.365,0.195,0.167,�쓌,1.0,��
2016/10/12,13:20,0.398,0.238,0.408,0.377,0.366,0.194,0.168,���k��,2.4,��
2016/10/12,13:30,0.398,0.239,0.413,0.378,0.363,0.195,0.168,���쓌,1.5,��
2016/10/12,13:40,0.395,0.239,0.410,0.381,0.362,0.195,0.167,�k�k��,2.8,��
2016/10/12,13:50,0.398,0.238,0.409,0.379,0.362,0.196,0.168,�k��,2.3,��
2016/10/12,14:00,0.394,0.239,0.413,0.376,0.366,0.195,0.167,�k��,4.1,��
2016/10/12,14:10,0.398,0.238,0.409,0.382,0.362,0.195,0.168,�k��,3.4,��
2016/10/12,14:20,0.396,0.238,0.413,0.378,0.366,0.196,0.168,�k��,2.2,��
2016/10/12,14:30,0.397,0.240,0.412,0.379,0.366,0.195,0.169,���k��,2.4,��
2016/10/12,14:40,0.397,0.238,0.410,0.380,0.363,0.195,0.167,�k��,2.5,��
2016/10/12,14:50,0.395,0.239,0.414,0.377,0.365,0.195,0.169,���k��,1.6,��
2016/10/12,15:00,0.398,0.237,0.411,0.379,0.364,0.196,0.168,��,0.9,��
2016/10/12,15:10,0.394,0.239,0.412,0.379,0.366,0.195,0.168,���k��,1.3,��
2016/10/12,15:20,0.398,0.239,0.412,0.378,0.366,0.196,0.168,���k��,1.0,��
2016/10/12,15:30,0.394,0.239,0.411,0.380,0.363,0.194,0.167,�k�k��,1.4,��
2016/10/12,15:40,0.396,0.240,0.413,0.378,0.367,0.196,0.169,�k,0.8,��
2016/10/12,15:50,0.397,0.239,0.411,0.381,0.364,0.195,0.167,�k��,2.2,��
2016/10/12,16:00,0.396,0.238,0.413,0.378,0.365,0.196,0.168,���k��,2.8,��
2016/10/12,16:10,0.397,0.239,0.411,0.380,0.367,0.196,0.169,���k��,4.2,��
2016/10/12,16:20,0.394,0.239,0.413,0.378,0.363,0.195,0.169,�k��,4.4,��
2016/10/12,16:30,0.399,0.238,0.409,0.380,0.368,0.196,0.168,�k��,5.3,��
2016/10/12,16:40,0.395,0.239,0.413,0.378,0.363,0.195,0.168,�k��,5.0,��
2016/10/12,16:50,0.399,0.238,0.411,0.378,0.367,0.196,0.168,�k��,5.4,��
2016/10/12,17:00,0.395,0.239,0.413,0.379,0.363,0.195,0.168,�k��,4.4,��
2016/10/12,17:10,0.397,0.240,0.413,0.378,0.366,0.197,0.168,�k�k��,3.3,��
2016/10/12,17:20,0.397,0.240,0.414,0.380,0.365,0.195,0.167,�k,5.9,��
2016/10/12,17:30,0.398,0.240,0.412,0.379,0.367,0.196,0.168,�k,7.0,��
2016/10/12,17:40,0.397,0.240,0.413,0.381,0.365,0.196,0.168,�k,6.8,��
2016/10/12,17:50,0.397,0.238,0.412,0.380,0.366,0.196,0.168,�k,7.3,��
2016/10/12,18:00,0.397,0.240,0.411,0.381,0.366,0.196,0.168,�k,7.5,��
2016/10/12,18:10,0.399,0.238,0.412,0.380,0.366,0.196,0.168,�k,7.8,��
2016/10/12,18:20,0.396,0.240,0.412,0.380,0.365,0.196,0.168,�k,7.4,��
2016/10/12,18:30,0.398,0.239,0.415,0.379,0.367,0.196,0.168,�k,6.4,��
2016/10/12,18:40,0.395,0.239,0.412,0.380,0.365,0.195,0.169,�k,6.4,��
2016/10/12,18:50,0.397,0.238,0.412,0.380,0.366,0.195,0.168,�k,7.0,��
2016/10/12,19:00,0.396,0.239,0.411,0.380,0.365,0.195,0.169,�k,5.6,��
2016/10/12,19:10,0.397,0.238,0.412,0.380,0.365,0.197,0.167,�k,6.4,��
2016/10/12,19:20,0.397,0.240,0.414,0.379,0.367,0.195,0.169,�k,6.1,��
2016/10/12,19:30,0.398,0.239,0.412,0.382,0.365,0.196,0.168,�k,6.5,��
2016/10/12,19:40,0.397,0.239,0.415,0.380,0.366,0.195,0.169,�k,5.8,��
2016/10/12,19:50,0.396,0.239,0.412,0.383,0.365,0.197,0.167,�k,5.0,��
2016/10/12,20:00,0.398,0.239,0.414,0.380,0.366,0.196,0.168,�k,5.4,��
2016/10/12,20:10,0.397,0.239,0.413,0.382,0.367,0.196,0.168,�k,5.4,��
2016/10/12,20:20,0.398,0.239,0.414,0.380,0.365,0.194,0.168,�k,7.7,��
2016/10/12,20:30,0.396,0.239,0.413,0.381,0.368,0.195,0.168,�k,8.9,��
2016/10/12,20:40,0.399,0.241,0.413,0.379,0.366,0.196,0.168,�k,7.4,��
2016/10/12,20:50,0.396,0.239,0.415,0.381,0.365,0.195,0.168,�k,7.3,��
2016/10/12,21:00,0.398,0.238,0.411,0.380,0.367,0.196,0.168,�k,8.9,��
2016/10/12,21:10,0.397,0.239,0.417,0.383,0.366,0.195,0.169,�k,8.3,��
2016/10/12,21:20,0.397,0.239,0.413,0.381,0.368,0.196,0.167,�k,9.7,��
2016/10/12,21:30,0.398,0.240,0.415,0.379,0.365,0.196,0.168,�k,8.6,��
2016/10/12,21:40,0.399,0.238,0.413,0.383,0.365,0.195,0.168,�k,6.9,��
2016/10/12,21:50,0.398,0.240,0.413,0.380,0.368,0.196,0.169,�k,6.9,��
2016/10/12,22:00,0.397,0.239,0.412,0.383,0.363,0.195,0.169,�k,6.1,��
2016/10/12,22:10,0.396,0.238,0.413,0.381,0.365,0.196,0.168,�k,6.4,��
2016/10/12,22:20,0.398,0.239,0.414,0.382,0.366,0.195,0.168,�k,6.2,��
2016/10/12,22:30,0.398,0.239,0.414,0.381,0.364,0.195,0.168,�k,7.5,��
2016/10/12,22:40,0.398,0.238,0.415,0.379,0.366,0.196,0.168,�k,7.0,��
2016/10/12,22:50,0.400,0.240,0.414,0.382,0.366,0.195,0.169,�k,7.5,��
2016/10/12,23:00,0.398,0.240,0.413,0.381,0.366,0.195,0.169,�k,7.4,��
2016/10/12,23:10,0.401,0.238,0.416,0.383,0.368,0.195,0.168,�k,7.2,��
2016/10/12,23:20,0.398,0.240,0.413,0.382,0.365,0.195,0.168,�k,6.3,��
2016/10/12,23:30,0.399,0.239,0.414,0.381,0.367,0.195,0.169,�k,5.1,��
2016/10/12,23:40,0.399,0.239,0.414,0.382,0.366,0.196,0.169,�k,2.9,��
2016/10/12,23:50,0.397,0.240,0.414,0.381,0.365,0.195,0.168,�k,3.1,��
